Weather History for Fort Stockton, TX

Change the Weather History Date:

Tuesday, February 12, 2013

  Actual Average Record
Temperature  
Mean Temperature 48 °F -  
Max Temperature 57 °F 63 °F 81 °F (2000)
Min Temperature 36 °F 38 °F 24 °F (1999)
Degree Days  
Heating Degree Days 17    
Moisture  
Dew Point 25 °F    
Average Humidity 44    
Maximum Humidity 80    
Minimum Humidity 19    
Precipitation  
Precipitation 0.00 in - - ()
Sea Level Pressure  
Sea Level Pressure 29.93 in    
Wind  
Wind Speed 14 mph (WNW)    
Max Wind Speed 30 mph    
Max Gust Speed 41 mph    
Visibility 10 miles    
Events      
Averages and records for this station are not official NWS values.
T = Trace of Precipitation, MM = Missing Value Source: NWS Daily Summary

Daily Weather History Graph

Daily Weather History Graph

Search for Another Location

Airport:

Trip Planner

Search our weather history database for the weather conditions in past years. The results will help you decide how hot, cold, wet, or windy it might be!

Date:

Astronomy

Feb. 12, 2013 Rise Set
Actual Time 7:34 AM CST 6:37 PM CST
Civil Twilight 7:10 AM CST 7:02 PM CST
Nautical Twilight 6:41 AM CST 7:30 PM CST
Astronomical Twilight 6:13 AM CST 7:58 PM CST
Moon 8:47 AM CST (2/12) 9:23 PM CST (2/12)
Length of Visible Light 11h 51m
Length of Day
11h 02m
Waxing Crescent, 7% of the Moon is Illuminated
Feb 12
Waxing Crescent
Feb 17
First Quarter
Feb 25
Full
Mar 4
Last Quarter
Mar 11
New

Hourly Weather History & Observations

Time (CST) Temp. Windchill Dew Point Humidity Pressure Visibility Wind Dir Wind Speed Gust Speed Precip Events Conditions
12:53 AM 51.1 °F - 43.0 °F 74% 29.77 in 10.0 mi SSE 9.2 mph - N/A   Clear
1:53 AM 50.0 °F - 43.0 °F 77% 29.77 in 10.0 mi South 12.7 mph - N/A   Clear
2:53 AM 46.9 °F - 41.0 °F 80% 29.76 in 10.0 mi SSW 10.4 mph - N/A   Clear
3:53 AM 45.0 °F 39.7 °F 35.1 °F 68% 29.78 in 10.0 mi SW 10.4 mph - N/A   Clear
4:53 AM 45.0 °F 39.3 °F 30.9 °F 58% 29.80 in 10.0 mi WSW 11.5 mph - N/A   Clear
5:53 AM 45.0 °F 37.4 °F 25.0 °F 46% 29.86 in 10.0 mi WNW 18.4 mph 24.2 mph N/A   Clear
6:53 AM 44.1 °F 37.4 °F 27.0 °F 51% 29.89 in 10.0 mi WNW 13.8 mph 24.2 mph N/A   Partly Cloudy
7:53 AM 45.0 °F 37.1 °F 30.9 °F 58% 29.91 in 10.0 mi West 19.6 mph 28.8 mph N/A   Clear
8:53 AM 48.9 °F - 26.1 °F 41% 29.93 in 10.0 mi West 16.1 mph 23.0 mph N/A   Overcast
9:53 AM 50.0 °F - 21.0 °F 32% 29.97 in 10.0 mi West 18.4 mph 31.1 mph N/A   Overcast
10:53 AM 53.1 °F - 16.0 °F 23% 29.96 in 6.0 mi West 27.6 mph 39.1 mph N/A   Haze
11:53 AM 55.0 °F - 12.9 °F 19% 29.95 in 10.0 mi WNW 23.0 mph 34.5 mph N/A   Clear
12:53 PM 55.9 °F - 17.1 °F 22% 29.94 in 10.0 mi NW 29.9 mph 41.4 mph N/A   Clear
1:53 PM 57.0 °F - 17.1 °F 21% 29.94 in 10.0 mi WNW 21.9 mph 35.7 mph N/A   Clear
2:53 PM 57.9 °F - 18.0 °F 21% 29.92 in 10.0 mi NW 20.7 mph 32.2 mph N/A   Partly Cloudy
3:53 PM 57.0 °F - 19.9 °F 24% 29.92 in 10.0 mi NNW 25.3 mph 34.5 mph N/A   Partly Cloudy
4:53 PM 57.0 °F - 19.0 °F 23% 29.94 in 10.0 mi NNW 17.3 mph 25.3 mph N/A   Partly Cloudy
5:53 PM 54.0 °F - 19.9 °F 26% 29.97 in 10.0 mi North 17.3 mph - N/A   Clear
6:53 PM 48.9 °F - 19.0 °F 31% 30.00 in 10.0 mi North 10.4 mph - N/A   Clear
7:53 PM 44.1 °F 40.1 °F 21.9 °F 42% 30.03 in 10.0 mi NNE 6.9 mph - N/A   Clear
8:53 PM 42.1 °F 39.2 °F 24.1 °F 49% 30.05 in 10.0 mi ENE 4.6 mph - N/A   Clear
9:53 PM 41.0 °F 39.0 °F 24.1 °F 51% 30.07 in 10.0 mi East 3.5 mph - N/A   Clear
10:53 PM 39.9 °F 37.8 °F 24.1 °F 53% 30.07 in 10.0 mi East 3.5 mph - N/A   Clear
11:53 PM 36.0 °F 33.3 °F 24.1 °F 62% 30.09 in 10.0 mi SSE 3.5 mph - N/A   Clear